Showing default

SES 17, 49332

Orbit data source: Space-Track

SES 17, 49332 is a payload satellite owned by SES (LU) in GEO that was launched on Sun, 24 Oct 2021 UTC via an ARIANE 5ECA+ launch vehicle from the French Guiana (FRGUI). Payload-class satellites include a variety of spacecraft equipped with specific instruments for various scientific and technological missions. These include communications satellites like Starlink; space stations such as the ISS; scientific satellites like the Hubble; Earth observation satellites from companies like Planet Labs, Umbra, and HawkEye 360; GPS; miniature CubeSats for education and research; and military/defense satellites.

Loading next visibility...
Identifier
49332, 2021-095A
Orbit
GEO
Last TLE update
14 hours ago
Origin
Manufacturer
Thales Alenia
Mission
Operational Commercial Communications
Bus & Motor
SPACEBUS NEO200, XPS/PPS-5000
Mass
6,411 kg wet, ~5,800 kg dry
Launch date (UTC)
2021-10-24 (4 years ago)
Launch vehicle
ARIANE 5ECA+
Launch site
French Guiana (FRGUI)
Object type
Payload
Rocket body
Debris
Shape & HBR
Box + 2 Pan, 46 m
Radar Cross Section
63.452 m², Large (>1 m²)

Expand to show TLE details & history

TLE from 14 hours ago
0 SES 17
1 49332U 21095A   25187.55082725 -.00000255  00000-0  00000-0 0  9998
2 49332   0.0136  37.8563 0001214  63.0187 315.0919  1.00269418 14383
Epoch: 2025-07-06T13:13Z
TLE epoch observation values (Epoch: 2025-07-06T13:13:11.474Z)
Latitude
0.01633°
Longitude
-67.11207°
Altitude
35,783.103 km
Speed
3.075 km/s
True Right ascension
03h 43m 50s
True Declination
0° 00' 59"
Sunlit
Object was in daylight at epoch
Visualization orbit readout
Latitude
-0.03162°
Longitude
144.50085°
Altitude
35,791.819 km
Speed
3.074 km/s
Apparent Right ascension
18h 08m 17s
Apparent Declination
-6° 04' 52"
Sunlit
Object is in daylight
Visualization observer readout
Local Sidereal Time
15:18:13
Azimuth
129.378° SE
Elevation
29.615°
Doppler factor
1
Orbital elements
Apogee altitude
35,793.448 km
Perigee altitude
35,783.21 km
Semi-major axis
42,166.466 km
Eccentricity
0.00012
Inclination
0.0136°
RAAN
37.8563°
Arg. of periapsis
63.0187°
True anomaly
Unknown
Mean anomaly
315.0919°
Eccentric anomaly
Unknown
Mean motion
0.25066 °/min
Orbital period
1,436.18 mins
BSTAR
0
Loading historical data...
49332 neighbors
Loading maneuver chart data...
Loading SW <> Apogee altitude chart data...
Loading historical data...
Loading historical data...
Loading historical data...
Loading historical data...
Loading historical data...
Loading historical data...
Loading historical data...
Other satellites on launch #95 in the year 2021 (2021-10-24 UTC)

SES 17 Visibility forecast

Observer location: undefined°, undefined°

Span
Click to sort rows by Start time (UTC) header in descending order
Start Az.
Max El. time (UTC)
Max El. Az.
Max El.
End time (UTC)
End Az.
1440 mins2025-07-07 03:17:18.031Z129.392° SE2025-07-07 17:21:18.031Z129.343° SE26.334°2025-07-08 03:17:18.031Z129.403° SE
|